Weather in Novyy Gorodok

Russia / Krasnoyarsk Krai     59°49′57″N   90°10′50″E
temp.,
°C
wind,
m/s
gust,
m/s
humid.,
%
clouds,
%
prec.,
mm/h
press.,
hPa
HPBL,
m
28 february, sun
sun2801:00−25sw2798100 0.2 1031390
04:00−26ssw2698100 0.1 1031294
07:00−25sw2698100 0.3 1032303
10:00−24sw3694100 0.1 1032521
13:00−21sw3590100 0.2 1032715
16:00−20sw3589100 0.1 1032745
19:00−23sw2297100 0.1 103248
22:00−24sw2299100 0.1 103246
1 march, mon
mon101:00−25ssw1199100 0.1 103119
04:00−27sse119997 0.1 103019
07:00−28ese129999 0.1 102919
10:00−26ese239895 0.0 1028171
13:00−20e238794 0.0 1026477
16:00−19ne2386100 0.0 1023590
19:00−23n229489 0.0 102420
22:00−26ne22931 0.0 102320
2 march, tue
tue201:00−28ene22921 0.0 102419
04:00−29ne12920 0.0 102319
07:00−30ene12900 0.0 102519
10:00−26e138768 0.0 1025147
13:00−20ese128184 0.0 1025387
16:00−18ene127895 0.0 1025504
19:00−24e018866 0.0 102620
22:00−24ese129190 0.0 102721
3 march, wed
wed301:00−26ese269391 0.0 1028112
04:00−28ese24932 0.0 102877
07:00−29ese24921 0.0 102988
10:00−25se39870 0.0 1029336
13:00−20se37820 0.0 1028529
16:00−18ese36800 0.0 1028623
19:00−23se23914 0.0 102927
22:00−24se3109165 0.0 1030268
4 march, thu
thu401:00−26se399256 0.0 1031263
04:00−28se310894 0.0 1032249
07:00−29se310882 0.0 1034268
10:00−26se410850 0.0 1034367
13:00−21se59850 0.0 1033495
16:00−18se510840 0.0 1031557
19:00−21se4128920 0.0 1031497
22:00−22se5138970 0.0 1031500